Location: Ladrillo (historical)
(32.8195°N, 117.2231°W)
Time: 07:42:02
(UTC+00:00)

Vanguard 3 - Pass Details

Date: 04 March 2021
Orbit: 508 x 3262 km, 33.3° (Epoch: 17 April)

Event Time Altitude Azimuth Distance (km) Brightness Sun altitude
Rises 21:51:04 0° 236° (SW) 6,958 12.6 43.1°
Reaches altitude 10° 21:55:33 10° 234° (SW) 6,088 12.7 42.5°
Maximum altitude 22:15:24 69° 156° (SSE) 3,223 11.0 39.6°
Drops below altitude 10° 22:30:59 10° 78° (ENE) 4,945 10.8 37.2°
Sets 22:34:11 0° 76° (ENE) 5,650 11.0 36.7°
